Location: Arran
(51.9410°N, 101.7372°W)
Time: 22:19:47
(UTC+00:00)

TIGRISAT - Visible Passes

Search period start: 01 December 2023 00:00
Search period end: 11 December 2023 00:00
Orbit: 598 x 676 km, 97.7° (Epoch: 30 November)

Date Brightness Start Highest point End Pass type
(mag) Time Alt. Az. Time Alt. Az. Time Alt. Az.
01 Dec ? 00:08:07 10° NNE 00:12:41 86° E 00:17:07 10° SSW visible
01 Dec ? 01:45:47 10° NNW 01:48:33 16° NW 01:51:17 10° W visible
02 Dec ? 00:30:49 10° N 00:35:17 60° WNW 00:39:38 10° SSW visible
02 Dec ? 02:09:37 10° NW 02:10:50 11° NW 02:12:04 10° WNW visible
02 Dec ? 23:17:14 10° NNE 23:21:13 30° E 23:25:06 10° SSE visible
03 Dec ? 00:53:36 10° N 00:57:48 38° WNW 01:01:52 10° SW visible
03 Dec ? 23:39:36 10° NNE 23:43:58 47° E 23:48:12 10° S visible
04 Dec ? 01:16:31 10° N 01:20:13 25° WNW 01:23:50 10° WSW visible
05 Dec ? 00:02:07 10° NNE 00:06:37 77° ESE 00:11:00 10° S visible
05 Dec ? 01:39:37 10° NNW 01:42:34 17° WNW 01:45:27 10° W visible
06 Dec ? 00:24:43 10° N 00:29:11 67° WNW 00:33:31 10° SSW visible
06 Dec ? 02:03:11 10° NNW 02:04:49 12° NW 02:06:27 10° WNW visible
06 Dec ? 23:11:14 10° NE 23:15:01 26° E 23:18:42 10° SSE visible
07 Dec ? 00:47:27 10° N 00:51:40 42° WNW 00:55:47 10° SW visible
07 Dec ? 23:33:30 10° NNE 23:37:44 42° E 23:41:52 10° S visible
08 Dec ? 01:10:17 10° N 01:14:04 28° WNW 01:17:47 10° WSW visible
08 Dec ? 23:55:55 10° NNE 00:00:22 68° ESE 00:04:41 10° S visible
09 Dec ? 01:33:17 10° NNW 01:36:23 19° WNW 01:39:26 10° WSW visible
10 Dec ? 00:18:28 10° N 00:22:55 76° WNW 00:27:13 10° SSW visible
10 Dec ? 01:56:39 10° NNW 01:58:37 13° NW 02:00:34 10° W visible
